Location: Kitt Peak
(31.9633°N, 111.6000°W)
Time: 12:18:54
(UTC-07:00)

Amateur Radio Satellites - All Passes

Search period start: 24 May 2015 11:48
Search period end: 25 May 2015 11:48
Location: Kitt Peak, 31.9633°N, 111.6000°W

Satellite Date Start Highest point End Downlink Frequencies (MHz)
Time Altitude Azimuth
Cosmos 2504 24 May 11:52:47 11:58:50 20° 289° (WNW) 12:04:15 435.465 / 435.565
AISAT 24 May 11:55:43 11:59:52 36° 287° (WNW) 12:03:56 437.250
SO-50 24 May 12:12:45 12:16:57 28° 54° (NE) 12:21:10 436.795
BUGSAT 1 24 May 12:15:22 12:17:35 14° 268° (W) 12:19:37 437.445
SPROUT 24 May 12:21:56 12:26:09 51° 99° (E) 12:30:22 437.525
SRMSAT 24 May 12:25:08 12:28:47 17° 167° (SSE) 12:32:30 437.500
Oscar 19 24 May 12:29:21 12:33:46 30° 71° (ENE) 12:38:18 437.125/150
DANDE 24 May 12:37:37 12:43:24 38° 88° (E) 12:50:36 436.750
ESTCUBE 1 24 May 12:54:17 12:57:01 15° 290° (WNW) 12:59:33 437.505/2401.250
TISAT 1 24 May 12:56:33 13:00:51 83° 282° (WNW) 13:05:05 437.305
Gurwin Techsat 1B 24 May 12:59:44 13:02:34 15° 67° (ENE) 13:05:40 435.225
JUGNU 24 May 13:01:04 13:05:46 25° 179° (S) 13:10:27 437.505
CUBEBUG 1 24 May 13:10:27 13:12:01 11° 292° (WNW) 13:13:18 437.445
GONETS M04 24 May 13:10:51 13:19:36 74° 94° (E) 13:28:26
CUSAT 1 24 May 13:27:30 13:34:08 66° 281° (W) 13:42:11 437.405
SO-50 24 May 13:53:13 13:57:28 28° 248° (WSW) 14:01:33 436.795
SPROUT 24 May 14:00:30 14:01:50 11° 291° (WNW) 14:02:54 437.525
ITUPSAT 1 24 May 14:02:51 14:07:38 70° 102° (ESE) 14:12:24 437.325
Oscar 19 24 May 14:08:47 14:13:07 26° 265° (W) 14:17:20 437.125/150
BEESAT 24 May 14:12:23 14:17:10 88° 291° (WNW) 14:21:57 436.000
SRMSAT 24 May 14:12:43 14:17:23 24° 176° (S) 14:22:04 437.500
ITAMSAT 1 24 May 14:15:30 14:20:41 82° 259° (W) 14:25:52 435.822/435.867
SWISSCUBE 24 May 14:20:28 14:25:13 65° 284° (WNW) 14:29:57 437.505
DANDE 24 May 14:20:46 14:26:42 34° 290° (WNW) 14:33:44 436.750
Cosmos 2499 24 May 14:34:10 14:41:58 46° 91° (E) 14:49:20 435.465 / 435.565
Gurwin Techsat 1B 24 May 14:36:57 14:42:09 55° 260° (W) 14:47:21 435.225
STARS 24 May 14:37:44 14:40:11 15° 93° (E) 14:42:50 437.465
HORYU 2 24 May 14:47:26 14:51:14 28° 72° (ENE) 14:55:05 437.375
JUGNU 24 May 14:49:57 14:54:13 21° 189° (S) 14:58:27 437.505
KKS-1 24 May 15:01:28 15:05:51 51° 100° (E) 15:10:11 437.445
JAS-2 24 May 15:08:51 15:15:39 54° 75° (ENE) 15:21:45 435.910
GONETS M04 24 May 15:11:16 15:17:26 19° 292° (WNW) 15:23:06
AO-7 24 May 15:12:07 15:20:06 57° 69° (ENE) 15:28:12 29.400- 29.500
O/OREOS (USA 219) 24 May 15:17:16 15:21:28 39° 105° (ESE) 15:25:42 437.305
SRMSAT 24 May 16:01:28 16:06:01 23° 186° (S) 16:10:34 437.500
MOZHAYETS 4 24 May 16:11:23 16:14:47 21° 94° (E) 16:18:17
STARS 24 May 16:12:43 16:16:47 36° 287° (WNW) 16:20:48 437.465
RS-15 24 May 16:20:36 16:28:19 20° 35° (NE) 16:36:47 29.354- 29.394
HORYU 2 24 May 16:24:27 16:27:53 20° 265° (W) 16:31:10 437.375
Cosmos 2499 24 May 16:28:11 16:35:17 29° 285° (WNW) 16:41:46 435.465 / 435.565
KKS-1 24 May 16:40:20 16:42:04 12° 292° (WNW) 16:43:32 437.445
JUGNU 24 May 16:41:01 16:42:38 11° 197° (SSW) 16:44:06 437.505
JAS-2 24 May 16:55:42 17:00:54 21° 265° (W) 17:05:27 435.910
O/OREOS (USA 219) 24 May 16:58:21 17:01:07 15° 300° (WNW) 17:03:41 437.305
YUBILEINY 24 May 17:06:22 17:09:32 13° 64° (ENE) 17:13:30 435.215
AO-7 24 May 17:06:34 17:13:20 26° 265° (W) 17:19:48 29.400- 29.500
BEESAT 3 24 May 17:06:45 17:09:07 16° 110° (ESE) 17:11:39 437.485
CUBESAT XI-V 24 May 17:43:12 17:45:53 16° 92° (E) 17:48:48 437.345
CUTE-I 24 May 17:47:45 17:52:56 60° 75° (ENE) 17:58:11 437.470
MOZHAYETS 4 24 May 17:48:05 17:52:00 28° 287° (WNW) 17:55:51
BEESAT 2 24 May 17:50:17 17:54:07 42° 114° (ESE) 17:58:03 435.950
SRMSAT 24 May 17:51:31 17:54:37 14° 195° (SSW) 17:57:36 437.500
Cubesat XI-IV 24 May 18:07:24 18:12:43 86° 257° (WSW) 18:18:04 437.490
RS-15 24 May 18:31:31 18:43:16 75° 60° (ENE) 18:55:29 29.354- 29.394
PRISM 24 May 18:37:14 18:40:39 25° 96° (E) 18:44:09 437.425
HO-68 24 May 18:38:52 18:41:17 12° 60° (ENE) 18:44:12 435.675
BEESAT 3 24 May 18:43:08 18:46:51 33° 303° (WNW) 18:50:34 437.485
Cosmos 2491 24 May 18:55:26 19:03:41 50° 90° (E) 19:12:07 435.465 / 435.565
YUBILEINY 24 May 18:59:11 19:07:54 85° 83° (E) 19:16:38 435.215
AIST 2 24 May 19:01:02 19:05:15 76° 116° (ESE) 19:09:32 435.215
M-CUBED/EXP-1 PRIME 24 May 19:05:16 19:07:26 17° 100° (E) 19:09:44 437.505
DOVE 4 24 May 19:09:15 19:10:43 11° 66° (ENE) 19:12:33 437.250
BRITE-PL 24 May 19:14:55 19:19:16 33° 72° (ENE) 19:24:01 437.365/2234.400
AUBIESAT-1 24 May 19:15:40 19:18:08 20° 101° (E) 19:20:42 437.475
CUBESAT XI-V 24 May 19:19:08 19:23:31 40° 286° (WNW) 19:27:53 437.345
BEESAT 2 24 May 19:30:07 19:32:28 14° 310° (NW) 19:34:39 435.950
GOMX 1 24 May 19:30:38 19:34:57 31° 72° (ENE) 19:39:36 467.674
CUTE-I 24 May 19:31:01 19:33:29 13° 269° (W) 19:35:35 437.470
STRAND 1 24 May 19:35:00 19:40:10 80° 282° (WNW) 19:45:18 437.568
SEEDS 24 May 19:37:40 19:40:00 15° 71° (ENE) 19:42:31 437.485
COMPASS 1 24 May 19:54:26 19:57:19 19° 72° (ENE) 20:00:21 437.405
Cosmos 2504 24 May 19:57:44 20:01:02 14° 67° (ENE) 20:04:52 435.465 / 435.565
AAUSAT CUBESAT 2 24 May 20:08:21 20:11:38 23° 73° (ENE) 20:15:00 437.432
PRISM 24 May 20:12:55 20:15:59 20° 289° (WNW) 20:18:55 437.425
CUBEBUG 2 24 May 20:14:25 20:16:21 13° 68° (ENE) 20:18:32 437.445
HO-68 24 May 20:20:56 20:28:07 82° 75° (ENE) 20:35:21 435.675
ZACube-1 24 May 20:28:33 20:29:08 10° 68° (ENE) 20:30:01 437.345
CINEMA 3 24 May 20:39:34 20:44:18 52° 75° (ENE) 20:49:12 145.822/145.860
M-CUBED/EXP-1 PRIME 24 May 20:40:03 20:42:16 17° 292° (WNW) 20:44:24 437.505
CANX-2 24 May 20:40:44 20:44:58 61° 260° (W) 20:49:12 2200.000
DOVE 4 24 May 20:42:55 20:47:51 70° 259° (W) 20:53:05 437.250
Oscar 11 24 May 20:43:41 20:47:22 28° 73° (ENE) 20:51:05 145.826/435.025
CUTE 1.7 + AOD 2 24 May 20:44:41 20:48:55 61° 260° (W) 20:53:08 437.475
RS-15 24 May 20:45:43 20:55:00 26° 255° (WSW) 21:03:50 29.354- 29.394
AUBIESAT-1 24 May 20:50:56 20:52:50 14° 293° (WNW) 20:54:37 437.475
DELFI C3 24 May 20:52:27 20:55:38 24° 73° (ENE) 20:58:55 145.870
Cosmos 2491 24 May 20:53:22 21:00:54 30° 288° (WNW) 21:08:12 435.465 / 435.565
BRITE-PL 24 May 20:54:06 20:57:54 22° 268° (W) 21:01:47 437.365/2234.400
AIST 1 24 May 20:58:26 21:02:36 54° 278° (W) 21:06:46
YUBILEINY 24 May 20:59:14 21:03:50 15° 278° (W) 21:07:45 435.215
UWE-3 24 May 21:04:32 21:08:48 37° 74° (ENE) 21:13:08 435.000/436.395/437.385
GOMX 1 24 May 21:09:02 21:13:06 24° 267° (W) 21:17:14 467.674
SEEDS 24 May 21:11:40 21:15:33 34° 262° (W) 21:19:24 437.485
FUNcube-1 24 May 21:21:15 21:25:34 43° 75° (ENE) 21:29:56 145.935
COMPASS 1 24 May 21:29:16 21:32:51 26° 264° (W) 21:36:22 437.405
AAUSAT CUBESAT 2 24 May 21:43:58 21:47:12 21° 266° (W) 21:50:19 437.432
CUBEBUG 2 24 May 21:47:57 21:52:36 54° 261° (W) 21:57:17 437.445
Cosmos 2504 24 May 21:48:09 21:55:20 75° 266° (W) 22:02:32 435.465 / 435.565
ZACube-1 24 May 22:00:29 22:05:01 62° 260° (W) 22:09:36 437.345
UNISAT 6 24 May 22:01:05 22:03:27 15° 92° (E) 22:06:00 437.425
UKube-1 24 May 22:07:45 22:12:03 70° 75° (ENE) 22:16:21 .
50 SAT 24 May 22:10:23 22:14:05 37° 75° (ENE) 22:17:49 437.505
ESTCUBE 1 24 May 22:11:55 22:15:10 21° 71° (ENE) 22:18:34 437.505/2401.250
DX 1 24 May 22:12:48 22:17:09 87° 71° (ENE) 22:21:32 434.975-435.025
HO-68 24 May 22:13:05 22:16:43 14° 270° (W) 22:19:44 435.675
HUMSAT D 24 May 22:14:45 22:19:05 84° 78° (ENE) 22:23:25 437.325/437.525
VELOX 1 24 May 22:17:39 22:21:49 43° 74° (ENE) 22:26:03 145.980
CINEMA 3 24 May 22:19:17 22:21:52 14° 270° (W) 22:24:10 145.822/145.860
Oscar 11 24 May 22:20:24 22:23:33 19° 266° (W) 22:26:34 145.826/435.025
CUBEBUG 1 24 May 22:23:44 22:27:08 24° 72° (ENE) 22:30:40 437.445
DELFI C3 24 May 22:27:45 22:30:44 19° 266° (W) 22:33:35 145.870
QB50P1 24 May 22:32:31 22:34:50 15° 92° (E) 22:37:20 145.935-145.965
POLYITAN 1 24 May 22:33:04 22:35:29 15° 93° (E) 22:38:05 437.675
UWE-3 24 May 22:42:19 22:45:28 17° 268° (W) 22:48:25 435.000/436.395/437.385
ANTELSAT 24 May 22:42:49 22:47:03 49° 99° (E) 22:51:14 437.575/2403.000
AISAT 24 May 22:48:06 22:52:32 76° 259° (WSW) 22:57:00 437.250
FUNcube-1 24 May 22:59:39 23:02:08 14° 269° (W) 23:04:22 145.935
NANOSAT C BR1 24 May 23:03:27 23:07:23 35° 98° (E) 23:11:18 145.865
QB50P2 24 May 23:09:32 23:13:38 44° 99° (E) 23:17:42 145.880/145.840
SPROUT 24 May 23:12:02 23:15:16 22° 72° (ENE) 23:18:37 437.525
TIGRISAT 24 May 23:16:45 23:21:06 63° 284° (WNW) 23:25:19 435.000
POPSAT HIP 1 24 May 23:22:18 23:26:33 63° 100° (E) 23:30:46 437.405
DANDE 24 May 23:26:11 23:32:19 26° 67° (ENE) 23:37:39 436.750
DUCHIFAT 1 24 May 23:26:13 23:30:29 70° 100° (E) 23:34:43 145.980
ISS 24 May 23:27:11 23:30:25 83° 315° (NW) 23:33:40 145.825
GONETS M04 24 May 23:28:16 23:35:23 28° 72° (ENE) 23:42:44
UNISAT 6 24 May 23:36:25 23:40:25 35° 287° (WNW) 23:44:18 437.425
TISAT 1 24 May 23:43:57 23:47:50 37° 74° (ENE) 23:51:47 437.305
50 SAT 24 May 23:47:20 23:49:00 12° 268° (W) 23:50:25 437.505
ESTCUBE 1 24 May 23:48:02 23:51:54 28° 264° (W) 23:55:43 437.505/2401.250
PCSat 24 May 23:55:55 00:00:01 23° 108° (ESE) 00:04:17 145.827
VELOX 1 24 May 23:56:34 23:58:38 13° 268° (W) 00:00:26 145.980
CUBEBUG 1 24 May 23:59:57 00:03:26 23° 265° (W) 00:06:50 437.445
BUGSAT 1 25 May 00:00:06 00:04:21 66° 284° (WNW) 00:08:32 437.445
QB50P1 25 May 00:06:56 00:10:51 34° 286° (WNW) 00:14:41 145.935-145.965
POLYITAN 1 25 May 00:07:38 00:11:31 33° 287° (WNW) 00:15:19 437.675
CUSAT 1 25 May 00:13:10 00:20:23 80° 80° (E) 00:25:51 437.405
ANTELSAT 25 May 00:22:01 00:23:26 11° 292° (WNW) 00:24:36 437.575/2403.000
NANOSAT C BR1 25 May 00:40:26 00:42:57 15° 290° (WNW) 00:45:16 145.865
Oscar 19 25 May 00:46:56 00:49:45 15° 92° (E) 00:52:49 437.125/150
QB50P2 25 May 00:47:20 00:49:10 12° 291° (WNW) 00:50:45 145.880/145.840
SPROUT 25 May 00:47:40 00:51:14 25° 265° (W) 00:54:46 437.525
VERMONT LUNAR 25 May 00:55:20 00:57:51 21° 144° (SE) 01:00:24 437.305
ITUPSAT 1 25 May 01:04:56 01:09:27 46° 74° (ENE) 01:14:00 437.325
DANDE 25 May 01:08:42 01:16:02 47° 270° (W) 01:21:46 436.750
BEESAT 25 May 01:13:58 01:18:37 60° 76° (ENE) 01:23:19 436.000
TISAT 1 25 May 01:21:35 01:23:48 13° 268° (W) 01:25:48 437.305
SWISSCUBE 25 May 01:22:00 01:26:44 82° 77° (ENE) 01:31:31 437.505
GONETS M04 25 May 01:24:12 01:32:37 52° 269° (W) 01:40:54
O/OREOS (USA 219) 25 May 01:32:04 01:36:07 34° 66° (ENE) 01:40:12 437.305
PCSat 25 May 01:38:14 01:43:14 37° 301° (WNW) 01:48:14 145.827
KKS-1 25 May 01:55:18 01:58:57 26° 72° (ENE) 02:02:43 437.445
CUSAT 1 25 May 01:59:29 02:01:45 11° 280° (W) 02:03:22 437.405
SO-50 25 May 02:22:46 02:26:29 25° 111° (ESE) 02:30:24 436.795
Cosmos 2499 25 May 02:23:31 02:30:34 73° 82° (E) 02:37:46 435.465 / 435.565
Oscar 19 25 May 02:24:28 02:29:25 48° 287° (WNW) 02:34:19 437.125/150
VERMONT LUNAR 25 May 02:31:46 02:34:54 50° 337° (NNW) 02:38:02 437.305
ITAMSAT 1 25 May 02:33:21 02:38:27 54° 100° (E) 02:43:34 435.822/435.867
PHONESAT 2.4 25 May 02:33:28 02:36:43 38° 147° (SSE) 02:39:59 2401.200-2431.200
ITUPSAT 1 25 May 02:45:05 02:47:38 14° 268° (W) 02:49:54 437.325
BEESAT 25 May 02:56:11 02:56:55 10° 270° (W) 02:57:17 436.000
Gurwin Techsat 1B 25 May 02:57:59 03:03:19 90° 15° (NNE) 03:08:39 435.225
STARS 25 May 03:04:08 03:08:34 79° 258° (WSW) 03:13:02 437.465
BEESAT 3 25 May 03:06:11 03:09:47 30° 56° (ENE) 03:13:22 437.485
MOZHAYETS 4 25 May 03:10:33 03:12:06 12° 69° (ENE) 03:13:56
O/OREOS (USA 219) 25 May 03:12:28 03:15:17 16° 258° (WSW) 03:17:56 437.305
AO-7 25 May 03:20:15 03:26:33 24° 95° (E) 03:33:11 29.400- 29.500
AIST 2 25 May 03:29:08 03:30:59 13° 49° (NE) 03:32:59 435.215
KKS-1 25 May 03:32:02 03:35:34 22° 265° (W) 03:39:00 437.445
BEESAT 2 25 May 03:51:36 03:55:43 85° 62° (ENE) 03:59:44 435.950
SO-50 25 May 04:02:52 04:06:55 28° 306° (NW) 04:11:03 436.795
JAS-2 25 May 04:08:13 04:13:22 67° 101° (ESE) 04:18:44 435.910
VERMONT LUNAR 25 May 04:10:10 04:12:33 19° 353° (N) 04:14:55 437.305
PHONESAT 2.4 25 May 04:11:35 04:14:50 37° 341° (NNW) 04:18:06 2401.200-2431.200
ITAMSAT 1 25 May 04:14:32 04:17:34 15° 293° (WNW) 04:20:21 435.822/435.867
HORYU 2 25 May 04:19:16 04:23:41 72° 284° (WNW) 04:28:04 437.375
Cosmos 2499 25 May 04:19:36 04:23:05 14° 275° (W) 04:26:03 435.465 / 435.565
MOZHAYETS 4 25 May 04:44:28 04:48:57 52° 261° (W) 04:53:25
BEESAT 3 25 May 04:44:53 04:47:33 17° 250° (WSW) 04:50:03 437.485
AIST 2 25 May 05:05:50 05:09:54 50° 245° (WSW) 05:13:53 435.215
AO-7 25 May 05:11:37 05:19:50 61° 290° (WNW) 05:27:58 29.400- 29.500
Cosmos 2491 25 May 05:13:31 05:18:55 18° 67° (ENE) 05:24:51 435.465 / 435.565
VERMONT LUNAR 25 May 05:47:58 05:50:26 20° 10° (N) 05:52:53 437.305
M-CUBED/EXP-1 PRIME 25 May 05:49:19 05:51:47 16° 68° (ENE) 05:54:19 437.505
PHONESAT 2.4 25 May 05:50:56 05:53:32 19° 357° (N) 05:56:08 2401.200-2431.200
JAS-2 25 May 05:56:46 05:58:05 11° 294° (WNW) 05:59:03 435.910
AUBIESAT-1 25 May 05:59:12 06:01:56 17° 68° (ENE) 06:04:42 437.475
ISS 25 May 05:59:47 06:01:18 13° 31° (NNE) 06:02:54 145.825
YUBILEINY 25 May 06:00:59 06:06:10 18° 84° (E) 06:11:54 435.215
CUTE-I 25 May 06:10:02 06:14:54 36° 97° (E) 06:19:50 437.470
CUBESAT XI-V 25 May 06:17:13 06:21:47 73° 258° (WSW) 06:26:23 437.345
Cubesat XI-IV 25 May 06:29:42 06:34:58 58° 100° (E) 06:40:16 437.490
RS-15 25 May 06:45:13 06:48:20 12° 102° (ESE) 06:52:41 29.354- 29.394
STRAND 1 25 May 06:45:56 06:51:02 89° 66° (ENE) 06:56:09 437.568
PRISM 25 May 06:57:11 07:01:09 49° 260° (W) 07:05:08 437.425
Cosmos 2491 25 May 07:08:01 07:16:51 76° 266° (W) 07:25:35 435.465 / 435.565
AIST 1 25 May 07:11:06 07:14:27 22° 76° (ENE) 07:17:55
M-CUBED/EXP-1 PRIME 25 May 07:22:18 07:26:26 36° 256° (WSW) 07:30:15 437.505
VERMONT LUNAR 25 May 07:24:50 07:28:00 64° 25° (NNE) 07:31:11 437.305
BRITE-PL 25 May 07:25:33 07:29:16 19° 91° (E) 07:33:06 437.365/2234.400
PHONESAT 2.4 25 May 07:29:19 07:32:19 27° 14° (NNE) 07:35:20 2401.200-2431.200
AUBIESAT-1 25 May 07:32:36 07:36:33 32° 257° (WSW) 07:40:12 437.475
ISS 25 May 07:34:47 07:38:01 59° 228° (SW) 07:41:13 145.825
GOMX 1 25 May 07:39:06 07:41:48 15° 89° (E) 07:44:42 467.674
CUTE-I 25 May 07:50:36 07:54:48 23° 291° (WNW) 07:58:52 437.470
YUBILEINY 25 May 07:53:29 08:02:15 73° 277° (W) 08:11:01 435.215
HO-68 25 May 07:55:43 08:00:27 20° 93° (E) 08:05:33 435.675
Cubesat XI-IV 25 May 08:11:39 08:14:39 15° 293° (WNW) 08:17:23 437.490
Cosmos 2504 25 May 08:30:25 08:34:44 16° 85° (E) 08:39:30 435.465 / 435.565
CANX-2 25 May 08:31:12 08:34:57 31° 97° (E) 08:38:43 2200.000
CUTE 1.7 + AOD 2 25 May 08:35:04 08:38:48 31° 97° (E) 08:42:34 437.475
CINEMA 3 25 May 08:41:06 08:44:07 18° 92° (E) 08:47:14 145.822/145.860
DOVE 4 25 May 08:47:34 08:52:30 50° 98° (E) 08:57:10 437.250
RS-15 25 May 08:48:32 08:59:22 78° 115° (ESE) 09:10:25 29.354- 29.394
AIST 1 25 May 08:48:33 08:52:03 23° 270° (W) 08:55:26
SEEDS 25 May 09:00:28 09:04:33 53° 100° (E) 09:08:38 437.485
BRITE-PL 25 May 09:02:40 09:08:04 46° 286° (WNW) 09:13:10 437.365/2234.400
VERMONT LUNAR 25 May 09:02:52 09:04:59 16° 217° (SW) 09:07:01 437.305
PHONESAT 2.4 25 May 09:07:11 09:10:39 73° 210° (SSW) 09:14:06 2401.200-2431.200
JUGNU 25 May 09:12:21 09:13:51 11° 163° (SSE) 09:15:30 437.505
GOMX 1 25 May 09:15:08 09:20:21 52° 285° (WNW) 09:25:15 467.674
COMPASS 1 25 May 09:16:47 09:20:55 69° 101° (E) 09:25:02 437.405
FUNcube-1 25 May 09:17:17 09:18:22 11° 90° (E) 09:19:45 145.935
AAUSAT CUBESAT 2 25 May 09:30:34 09:34:43 87° 102° (ESE) 09:38:50 437.432
ANTELSAT 25 May 09:37:06 09:40:59 27° 72° (ENE) 09:44:55 437.575/2403.000
HO-68 25 May 09:41:40 09:48:42 62° 288° (WNW) 09:55:41 435.675
CUBEBUG 2 25 May 09:44:28 09:48:43 45° 98° (E) 09:52:51 437.445
NANOSAT C BR1 25 May 09:52:36 09:54:58 15° 70° (ENE) 09:57:32 145.865
ZACube-1 25 May 09:54:35 09:58:32 35° 97° (E) 10:02:25 437.345
QB50P2 25 May 09:58:36 10:01:32 19° 71° (ENE) 10:04:37 145.880/145.840
YUBILEINY 25 May 09:59:27 10:00:56 10° 298° (WNW) 10:01:30 435.215
UKube-1 25 May 10:01:17 10:04:03 17° 94° (E) 10:07:00 .
HUMSAT D 25 May 10:04:51 10:07:45 19° 94° (E) 10:10:45 437.325/437.525
DX 1 25 May 10:06:45 10:10:07 22° 95° (E) 10:13:35 434.975-435.025
CANX-2 25 May 10:07:59 10:10:39 16° 289° (WNW) 10:13:09 2200.000
TIGRISAT 25 May 10:09:59 10:14:37 62° 76° (ENE) 10:19:15 435.000
DELFI C3 25 May 10:10:30 10:14:31 81° 101° (ESE) 10:18:31 145.870
POPSAT HIP 1 25 May 10:10:45 10:14:14 25° 72° (ENE) 10:17:49 437.405
Oscar 11 25 May 10:11:08 10:15:26 72° 284° (WNW) 10:19:42 145.826/435.025
CUTE 1.7 + AOD 2 25 May 10:11:49 10:14:31 16° 289° (WNW) 10:17:01 437.475
DUCHIFAT 1 25 May 10:14:10 10:17:43 27° 72° (ENE) 10:21:22 145.980
VELOX 1 25 May 10:14:57 10:16:42 12° 91° (E) 10:18:43 145.980
CINEMA 3 25 May 10:17:13 10:21:29 33° 287° (WNW) 10:25:30 145.822/145.860
Cosmos 2504 25 May 10:18:59 10:27:33 79° 278° (W) 10:35:33 435.465 / 435.565
DOVE 4 25 May 10:26:52 10:29:47 15° 293° (WNW) 10:32:23 437.250
UNISAT 6 25 May 10:29:31 10:34:13 76° 259° (W) 10:38:55 437.425
PCSat 25 May 10:30:28 10:35:50 62° 62° (ENE) 10:41:12 145.827
UWE-3 25 May 10:35:47 10:40:03 51° 285° (WNW) 10:44:10 435.000/436.395/437.385
AISAT 25 May 10:44:04 10:48:00 30° 97° (E) 10:51:57 437.250
BUGSAT 1 25 May 10:45:17 10:49:09 42° 74° (ENE) 10:53:07 437.445
FUNcube-1 25 May 10:50:56 10:55:02 44° 285° (WNW) 10:59:02 145.935
QB50P1 25 May 10:54:08 10:58:24 90° 152° (SSE) 11:02:43 145.935-145.965
POLYITAN 1 25 May 10:55:04 10:59:22 86° 258° (WSW) 11:03:42 437.675
JUGNU 25 May 10:58:01 11:02:18 21° 171° (S) 11:06:35 437.505
RS-15 25 May 11:04:04 11:13:04 27° 318° (NW) 11:21:56 29.354- 29.394
ANTELSAT 25 May 11:13:51 11:17:42 24° 265° (W) 11:21:25 437.575/2403.000
CUBEBUG 2 25 May 11:23:03 11:25:01 12° 292° (WNW) 11:26:43 437.445
50 SAT 25 May 11:25:54 11:29:46 67° 283° (WNW) 11:33:34 437.505
NANOSAT C BR1 25 May 11:26:37 11:30:32 35° 262° (W) 11:34:28 145.865
CUSAT 1 25 May 11:31:56 11:35:54 17° 83° (E) 11:40:42 437.405
ZACube-1 25 May 11:32:05 11:34:37 15° 290° (WNW) 11:36:56 437.345
QB50P2 25 May 11:33:32 11:37:15 28° 264° (W) 11:40:56 145.880/145.840
UKube-1 25 May 11:36:24 11:40:16 31° 287° (WNW) 11:44:04 .
HUMSAT D 25 May 11:40:03 11:43:30 25° 288° (WNW) 11:46:50 437.325/437.525
